Notices

What's New in latest Release from April 7th, 2021:

- Updated Glossary, including Speed of Maximum Gust, and Total Hourly Precipitation

- Updated national and regional climate services offices contacts and prices information

- Addition of station inventory lists for 1981-2010, 1971-2000, and 1961-1990 Normals.

If you haven't already, please take our survey and provide feedback about our website: https://eccc.sondage-survey.ca/f/LanguageSelection.aspx?s=442ca660-fcf1-47c0-95a9-59707d6fd709

Hourly Data Report for January 23, 2017

TORONTO CITY
ONTARIO

43°40'00.000" N
79°24'00.000" W
112.50 m
6158355
71508
XTO

Download Data

Hourly Data (January 2017)
Hourly Data Report for January 23, 2017
TIME
LST
Temp Definition
°C
Dew Point Definition
°C
Rel Hum Definition
%
Precip. Amount Definition
mm

Wind Dir Definition
10's deg

Wind Spd Definition
km/h
Visibility Definition
km
Stn Press Definition
kPa
Hmdx Definition


Wind Chill Definition


Weather Definition


00:00 2.8 -0.5 79 0.0 LegendMM LegendMM   99.42     LegendNANA
01:00 2.5 -0.4 81 0.0 LegendMM LegendMM   99.42     LegendNANA
02:00 2.5 0.1 84 0.0 LegendMM LegendMM   99.48     LegendNANA
03:00 2.5 0.3 86 0.0 LegendMM LegendMM   99.49     LegendNANA
04:00 2.2 0.5 89 0.0 LegendMM LegendMM   99.44     LegendNANA
05:00 2.1 0.5 89 0.0 LegendMM LegendMM   99.41     LegendNANA
06:00 2.2 0.9 91 0.0 LegendMM LegendMM   99.44     LegendNANA
07:00 2.3 0.9 91 0.0 LegendMM LegendMM   99.46     LegendNANA
08:00 2.4 1.4 93 0.0 LegendMM LegendMM   99.48     LegendNANA
09:00 2.3 1.5 94 0.0 LegendMM LegendMM   99.53     LegendNANA
10:00 2.7 1.6 92 0.0 LegendMM LegendMM   99.57     LegendNANA
11:00 3.0 1.3 88 0.0 LegendMM LegendMM   99.57     LegendNANA
12:00 3.3 1.2 86 0.0 LegendMM LegendMM   99.54     LegendNANA
13:00 3.4 1.0 84 0.0 LegendMM LegendMM   99.44     LegendNANA
14:00 3.6 0.7 81 0.0 LegendMM LegendMM   99.40     LegendNANA
15:00 4.3 0.3 76 0.0 LegendMM LegendMM   99.37     LegendNANA
16:00 4.2 0.1 75 0.0 LegendMM LegendMM   99.38     LegendNANA
17:00 3.8 0.3 78 0.0 LegendMM LegendMM   99.42     LegendNANA
18:00 3.7 0.1 77 0.0 LegendMM LegendMM   99.49     LegendNANA
19:00 3.4 0.1 79 0.0 LegendMM LegendMM   99.57     LegendNANA
20:00 3.0 -0.2 79 0.0 LegendMM LegendMM   99.55     LegendNANA
21:00 2.8 -0.6 78 0.0 LegendMM LegendMM   99.49     LegendNANA
22:00 2.4 -1.2 77 0.0 LegendMM LegendMM   99.46     LegendNANA
23:00 2.1 -1.3 78 0.0 LegendMM LegendMM   99.47     LegendNANA

Notes on Data Quality.

Legend

  • E = Estimated
  • M = Missing
  • NA = Not Available*
  • [empty] = Indicates an unobserved value
Date modified: